Date String (YYYY-MM-DD hh:mm:ss) UTC,Instrument flags,Ambient pressure (hPa),Sample flow (lpm),Bypass flow (lpm),Sample temperature (°C),Ambient temperature (°C),ASC tube jacket temperature (°C),LED temperature (°C),Box temperature (°C),Sample RH (%),Span deviation,Mass concentration (μg/m³),Mass concentration (μg/m³),Mass concentration (μg/m³)
DateTimeUTC,F1_M11,P_M11,Q1_M11,Q2_M11,T1_M11,T2_M11,T3_M11,T4_M11,T5_M11,U1_M11,ZSPAN_M11,X0_M11,X2_M11,X1_M11
2022-04-02 04:00:00,,0824.1,4.99,0.00,27.1,26.3,00.0,36.0,28.9,11.0,0000.0,0013.30,0004.17,0002.95
2022-04-02 04:01:00,,0824.1,5.00,0.00,27.1,26.3,00.0,36.0,28.9,11.0,0000.0,0012.99,0004.13,0002.96
2022-04-02 04:02:00,,0824.2,5.00,0.00,27.1,26.3,00.0,36.0,28.9,11.0,0000.0,0014.00,0004.05,0002.96
2022-04-02 04:03:00,,0824.2,5.00,0.00,27.1,26.3,00.0,36.0,28.9,11.0,0000.0,0013.83,0004.00,0002.96
2022-04-02 04:04:00,,0824.2,5.00,0.00,27.1,26.3,00.0,36.0,28.9,11.0,0000.0,0013.43,0003.97,0002.98
2022-04-02 04:05:00,,0824.1,5.00,0.00,27.1,26.3,00.0,36.0,28.9,11.0,0000.0,0013.05,0003.88,0003.02
2022-04-02 04:06:00,,0824.2,5.02,0.00,27.1,26.3,00.0,36.0,28.9,11.0,0000.0,0013.38,0003.88,0003.08
2022-04-02 04:07:00,,0824.1,5.01,0.00,27.1,26.3,00.0,36.0,28.9,11.1,0000.0,0013.56,0003.93,0003.14
2022-04-02 04:08:00,,0824.1,5.00,0.00,27.1,26.3,00.0,36.0,28.9,11.1,0000.0,0013.28,0003.99,0003.18
2022-04-02 04:09:00,,0824.1,4.99,0.00,27.1,26.3,00.0,36.0,28.9,11.2,0000.0,0013.67,0003.98,0003.21
2022-04-02 04:10:00,,0824.0,4.99,0.00,27.1,26.3,00.0,36.0,28.9,11.2,0000.0,0014.36,0004.02,0003.24
2022-04-02 04:11:00,,0824.1,4.99,0.00,27.1,26.3,00.0,36.0,28.9,11.2,0000.0,0014.53,0004.07,0003.28
2022-04-02 04:12:00,,0824.1,5.02,0.00,27.1,26.3,00.0,36.0,28.9,11.2,0000.0,0014.68,0004.13,0003.32
2022-04-02 04:13:00,,0824.1,5.02,0.00,27.1,26.3,00.0,36.0,28.9,11.2,0000.0,0014.66,0004.19,0003.37
2022-04-02 04:14:00,,0824.1,4.99,0.00,27.1,26.3,00.0,36.0,28.9,11.2,0000.0,0013.95,0004.29,0003.41
2022-04-02 04:15:00,,0824.1,5.00,0.00,27.1,26.3,00.0,36.0,28.9,11.3,0000.0,0014.23,0004.38,0003.46
2022-04-02 04:16:00,,0824.1,5.02,0.00,27.1,26.3,00.0,36.1,28.9,11.3,0000.0,0014.65,0004.47,0003.50
2022-04-02 04:17:00,,0824.1,4.99,0.00,27.1,26.3,00.0,36.1,28.9,11.2,0000.0,0014.76,0004.55,0003.53
2022-04-02 04:18:00,,0824.1,5.00,0.00,27.1,26.3,00.0,36.1,28.9,11.1,0000.0,0014.97,0004.55,0003.56
2022-04-02 04:19:00,,0824.1,5.01,0.00,27.1,26.3,00.0,36.1,28.9,11.2,0000.0,0015.88,0004.60,0003.60
2022-04-02 04:20:00,,0824.2,4.98,0.00,27.1,26.3,00.0,36.1,28.9,11.2,0000.0,0016.14,0004.68,0003.63
2022-04-02 04:21:00,,0824.2,5.01,0.00,27.1,26.3,00.0,36.0,28.9,11.1,0000.0,0015.95,0004.72,0003.66
2022-04-02 04:22:00,,0824.1,5.00,0.00,27.1,26.3,00.0,36.0,28.9,11.1,0000.0,0015.69,0004.75,0003.68
2022-04-02 04:23:00,,0824.1,4.99,0.00,27.1,26.3,00.0,36.0,28.9,11.1,0000.0,0015.64,0004.79,0003.70
2022-04-02 04:24:00,,0824.1,5.00,0.00,27.1,26.3,00.0,36.0,28.9,11.1,0000.0,0014.50,0004.78,0003.72
2022-04-02 04:25:00,,0824.1,5.00,0.00,27.1,26.2,00.0,36.1,28.9,11.1,0000.0,0014.07,0004.78,0003.76
2022-04-02 04:26:00,,0824.1,5.02,0.00,27.1,26.2,00.0,36.1,28.9,11.1,0000.0,0014.84,0004.81,0003.78
2022-04-02 04:27:00,,0824.1,5.00,0.00,27.1,26.2,00.0,36.1,28.9,11.1,0000.0,0014.74,0004.79,0003.79
2022-04-02 04:28:00,,0824.0,4.99,0.00,27.1,26.2,00.0,36.1,28.9,11.1,0000.0,0014.28,0004.79,0003.80
2022-04-02 04:29:00,,0824.1,5.00,0.00,27.1,26.2,00.0,36.1,28.9,11.1,0000.0,0015.61,0004.81,0003.81
2022-04-02 04:30:00,,0824.1,5.00,0.00,27.1,26.2,00.0,36.0,28.9,11.1,0000.0,0014.99,0004.82,0003.81
2022-04-02 04:31:00,,0824.1,4.99,0.00,27.1,26.2,00.0,36.0,28.9,11.1,0000.0,0014.38,0004.82,0003.81
2022-04-02 04:32:00,,0824.1,5.01,0.00,27.1,26.2,00.0,36.0,28.9,11.2,0000.0,0013.82,0004.77,0003.82
2022-04-02 04:33:00,,0824.0,5.01,0.00,27.1,26.2,00.0,36.0,28.9,11.2,0000.0,0013.51,0004.75,0003.82
2022-04-02 04:34:00,,0824.1,4.99,0.00,27.1,26.2,00.0,36.0,28.8,11.2,0000.0,0013.28,0004.75,0003.83
2022-04-02 04:35:00,,0824.1,5.00,0.00,27.1,26.2,00.0,36.0,28.8,11.2,0000.0,0013.58,0004.82,0003.84
2022-04-02 04:36:00,,0824.0,5.02,0.00,27.1,26.2,00.0,36.0,28.8,11.2,0000.0,0013.56,0004.82,0003.83
2022-04-02 04:37:00,,0824.1,5.00,0.00,27.1,26.1,00.0,36.0,28.8,11.3,0000.0,0012.85,0004.82,0003.83
2022-04-02 04:38:00,,0824.0,4.99,0.00,27.1,26.1,00.0,36.0,28.9,11.3,0000.0,0012.32,0004.81,0003.82
2022-04-02 04:39:00,,0824.0,4.99,0.00,27.1,26.2,00.0,36.0,28.9,11.3,0000.0,0012.18,0004.80,0003.82
2022-04-02 04:40:00,,0824.1,5.00,0.00,27.1,26.1,00.0,36.0,28.9,11.3,0000.0,0011.12,0004.82,0003.82
2022-04-02 04:41:00,,0824.1,5.02,0.00,27.1,26.1,00.0,36.0,28.8,11.3,0000.0,0010.82,0004.82,0003.81
2022-04-02 04:42:00,,0824.1,4.99,0.00,27.0,26.1,00.0,36.0,28.8,11.3,0000.0,0011.28,0004.79,0003.79
2022-04-02 04:43:00,,0824.1,5.00,0.00,27.0,26.1,00.0,36.0,28.8,11.3,0000.0,0012.10,0004.83,0003.78
2022-04-02 04:44:00,,0824.1,5.00,0.00,27.0,26.1,00.0,36.0,28.8,11.3,0000.0,0012.29,0004.82,0003.78
2022-04-02 04:45:00,,0824.1,4.99,0.00,27.0,26.1,00.0,36.0,28.8,11.3,0000.0,0012.17,0004.78,0003.76
2022-04-02 04:46:00,,0824.1,5.00,0.00,27.0,26.1,00.0,36.0,28.8,11.3,0000.0,0011.92,0004.70,0003.74
2022-04-02 04:47:00,,0824.1,5.00,0.00,27.0,26.1,00.0,36.0,28.8,11.3,0000.0,0012.25,0004.65,0003.72
2022-04-02 04:48:00,,0824.1,5.01,0.00,27.0,26.1,00.0,36.0,28.8,11.4,0000.0,0013.27,0004.64,0003.70
2022-04-02 04:49:00,,0824.1,4.99,0.00,27.0,26.1,00.0,36.0,28.8,11.3,0000.0,0014.01,0004.61,0003.67
2022-04-02 04:50:00,,0824.0,5.00,0.00,27.0,26.1,00.0,36.0,28.8,11.3,0000.0,0014.00,0004.58,0003.66
2022-04-02 04:51:00,,0824.0,5.00,0.00,27.0,26.1,00.0,36.0,28.8,11.3,0000.0,0013.92,0004.56,0003.64
2022-04-02 04:52:00,,0824.0,4.99,0.00,27.0,26.1,00.0,36.0,28.8,11.4,0000.0,0013.39,0004.56,0003.64
2022-04-02 04:53:00,,0824.0,4.99,0.00,27.0,26.1,00.0,36.0,28.8,11.4,0000.0,0012.75,0004.59,0003.63
2022-04-02 04:54:00,,0824.0,5.01,0.00,27.0,26.1,00.0,36.0,28.8,11.3,0000.0,0012.07,0004.55,0003.62
2022-04-02 04:55:00,,0824.1,5.00,0.00,27.0,26.1,00.0,36.0,28.8,11.3,0000.0,0012.96,0004.54,0003.61
2022-04-02 04:56:00,,0824.1,5.00,0.00,27.0,26.1,00.0,36.0,28.8,11.3,0000.0,0013.57,0004.54,0003.61
2022-04-02 04:57:00,,0823.9,5.01,0.00,27.0,26.0,00.0,36.0,28.8,11.3,0000.0,0013.48,0004.54,0003.60
2022-04-02 04:58:00,,0824.0,4.99,0.00,27.0,26.0,00.0,36.0,28.8,11.3,0000.0,0013.01,0004.51,0003.58
2022-04-02 04:59:00,,0823.9,4.99,0.00,27.0,26.0,00.0,36.0,28.8,11.3,0000.0,0012.07,0004.48,0003.56
